Presure
221 222 218 222 215 210 206 204 205 206 184 198 197 193 188 157 125 172 169 179 182 183 181 186 191 196 198 142 145 206 208 149
227 221 206 198 202 205 203 195 194 143 142 185 188 185 178 174 180 181 183 182 189 196 207 126 120 125 208 203 204 201 143 181
192 196 204 206 195 190 184 183 184 183 184 181 185 189 186 183 184 188 196 204 205 206 205 204 209 203 198 156 153 202 203 154
207 199 195 185 182 179 172 182 186 183 189 185 189 188 185 186 191 204 203 198 209 134 163 185 202 205 215 213 213 214 202 219
196 193 183 182 181 178 191 189 186 182 181 181 184 192 188 199 200 189 193 196 139 202 206 206 201 200 199 217 221 219 179 221
190 181 183 172 183 186 187 184 181 181 136 186 182 191 144 191 196 114 191 158 194 194 205 212 217 218 219 224 224 221 219 223
183 180 175 176 183 183 180 181 174 165 179 123 140 114 192 186 186 184 188 194 203 197 202 214 220 226 232 226 223 220 229 229
181 164 179 175 187 174 178 177 110 173 181 97 191 193 189 189 192 191 197 200 205 214 209 219 228 228 220 229 228 229 254 256
175 182 173 179 177 174 180 180 113 183 194 194 165 185 189 193 135 127 126 131 211 210 224 231 234 227 236 239 251 257 255 269
186 172 175 87 175 177 179 187 192 184 126 195 186 189 185 120 137 208 217 223 219 233 237 239 232 245 253 261 257 271 337 345
179 176 174 181 180 180 198 189 110 176 198 197 187 191 191 205 214 220 224 236 235 231 243 251 258 268 271 272 333 347 348 312
172 173 185 181 180 183 183 118 194 199 189 192 193 173 211 214 226 238 238 238 244 248 254 266 317 341 341 352 343 297 406 423
178 181 182 184 185 113 178 192 195 192 198 198 203 210 226 233 240 244 244 251 259 268 338 340 339 355 336 295 418 428 423 424
181 184 108 119 189 190 199 200 190 190 191 207 215 226 238 243 248 253 279 349 327 338 339 336 290 287 434 431 417 410 403 396
180 187 121 148 193 198 189 194 192 208 213 228 235 250 255 255 305 281 255 323 307 279 277 406 433 419 413 402 398 391 385 381
113 102 108 177 188 191 194 198 204 226 230 249 251 270 358 295 329 359 308 282 269 308 439 424 411 404 400 383 376 368 364 361
105 196 197 196 197 198 204 222 225 252 260 347 365 368 283 290 284 298 301 320 408 422 413 406 397 385 380 368 362 353 351 352
197 190 196 198 209 203 224 236 243 302 308 345 281 272 286 292 299 315 333 427 411 405 399 389 380 374 366 355 361 361 354 349
197 192 194 214 202 218 238 239 268 296 287 266 258 289 294 308 325 395 420 402 392 396 384 379 369 360 365 355 346 342 340 343
Wind_Speed
41 42 41 40 38 37 38 41 43 43 49 44 45 48 51 50 55 61 64 65 68 67 70 73 76 77 78 53 46 82 80 54
37 31 33 38 39 37 38 39 42 60 60 49 50 53 57 60 62 64 68 70 72 75 77 46 48 46 82 84 85 82 58 75
40 38 35 35 37 39 42 45 47 49 50 52 55 57 60 62 65 70 73 74 76 79 80 82 85 86 84 65 65 90 90 68
32 34 36 40 44 49 54 52 52 54 56 58 62 65 67 69 74 77 77 78 80 51 69 78 87 91 92 92 93 95 89 97
35 36 41 46 50 55 53 54 56 59 63 64 68 74 73 79 79 77 83 85 61 89 91 92 93 93 91 93 95 98 80 98
39 47 47 57 55 57 58 60 63 66 42 73 73 79 48 83 85 59 87 77 92 92 96 98 102 103 101 102 102 103 102 103
46 51 55 59 61 60 64 67 67 62 76 42 52 50 86 89 90 89 91 96 99 100 102 106 108 109 111 110 109 106 113 111
49 55 55 60 61 66 71 72 39 75 82 49 87 87 90 92 94 95 99 102 104 108 107 114 116 114 109 115 113 115 134 134
54 55 61 64 66 71 75 79 47 84 85 86 79 93 95 99 62 57 58 62 112 111 119 122 122 119 128 128 137 141 135 142
55 62 65 37 72 74 78 85 86 81 58 92 96 98 97 55 73 112 117 121 118 129 130 132 124 140 142 145 140 144 121 112
60 66 70 72 75 79 80 85 48 88 94 97 99 101 104 110 116 122 123 131 132 132 142 142 146 147 147 144 122 115 110 108
66 71 73 77 81 85 89 56 94 96 98 101 103 82 115 118 125 132 132 134 139 144 143 146 133 121 117 113 111 112 77 68
71 75 78 82 86 52 89 95 97 101 106 107 111 118 128 132 135 135 135 139 142 145 117 115 115 110 108 110 71 62 59 54
76 80 50 48 89 93 96 99 102 104 101 118 124 128 132 132 136 136 139 110 112 112 112 110 109 109 64 60 59 56 54 53
79 82 48 67 93 96 99 102 104 115 121 127 130 134 134 132 120 125 120 111 109 109 110 79 66 64 60 57 55 53 51 50
45 42 48 85 98 101 104 109 115 126 128 134 135 138 114 116 110 106 107 106 106 111 66 64 62 59 54 54 54 53 52 50
45 90 94 98 102 106 114 125 124 138 140 118 112 107 111 110 108 107 108 112 81 67 64 61 58 58 54 54 54 54 54 54
90 94 99 105 114 108 123 131 135 122 112 106 109 109 108 107 109 111 110 67 67 64 61 58 57 58 54 57 58 57 53 52
95 99 105 118 106 117 130 128 126 113 112 106 108 107 108 111 112 90 67 65 65 61 59 57 57 59 58 57 55 54 53 52
Wind_Direction
295 297 296 295 296 297 297 296 297 300 302 301 301 301 300 298 308 297 296 296 297 297 296 297 296 294 295 281 287 295 294 288
296 298 298 296 297 300 302 301 301 298 300 302 301 297 296 295 294 293 295 295 297 296 297 294 280 274 297 296 296 293 287 287
295 295 295 300 304 304 300 301 301 302 301 299 296 295 294 295 299 300 299 299 300 300 299 299 298 297 295 290 289 292 290 284
295 295 300 300 299 300 302 303 303 302 302 300 302 302 302 304 305 304 304 302 302 291 297 297 297 295 294 293 292 291 286 287
294 297 296 299 301 302 304 303 303 303 305 307 308 309 307 307 306 305 305 306 297 302 300 299 298 297 296 293 293 290 285 289
293 294 302 304 307 308 309 309 306 306 296 309 308 309 299 307 306 306 305 302 302 302 300 299 299 298 297 296 294 292 291 292
296 305 306 306 309 310 306 306 305 304 307 290 298 296 306 306 305 306 305 303 302 301 300 300 301 301 300 297 297 296 295 295
303 304 304 305 308 303 305 306 296 308 308 310 304 303 304 304 303 304 303 301 301 302 301 303 301 299 298 297 297 297 296 296
303 303 304 305 304 305 306 306 303 306 303 302 305 304 305 304 305 305 304 307 304 304 302 301 301 300 300 299 298 297 297 294
302 302 302 306 303 305 306 305 304 303 305 302 304 304 307 305 305 305 305 306 305 303 302 301 302 300 299 298 298 296 294 292
301 298 300 301 303 303 303 304 308 305 301 301 304 305 304 304 307 308 306 303 303 305 303 301 300 298 297 297 296 296 295 294
296 300 300 302 304 306 306 306 300 302 302 303 303 307 307 308 307 305 306 306 304 302 301 299 298 299 298 298 298 296 294 292
301 303 303 304 303 312 301 300 301 302 303 305 308 309 307 307 307 306 306 303 302 299 300 300 300 301 300 298 297 297 296 294
302 302 309 304 299 300 303 305 304 305 307 309 308 309 309 307 306 304 301 303 302 302 303 303 302 300 301 301 300 298 296 294
300 299 306 304 300 304 303 303 305 308 309 309 308 304 306 305 305 302 305 304 305 304 304 306 305 303 303 302 300 299 296 293
305 313 317 304 303 303 304 307 309 309 310 307 307 303 307 304 305 307 305 304 304 306 309 307 305 303 303 301 300 299 297 294
312 302 305 304 304 306 310 309 311 310 307 306 310 310 304 305 305 308 308 308 310 311 310 308 305 304 305 300 300 298 296 292
303 301 305 307 311 310 313 312 311 308 310 312 307 307 308 309 310 310 310 313 313 312 311 308 306 305 306 303 303 300 297 293
307 306 308 310 312 315 313 312 309 311 311 309 309 310 311 311 311 312 313 314 314 314 311 309 309 308 309 307 304 301 296 291